Home   Weather   Pyatigorsk   Past weeks

Flag for Russia Past Weather in Pyatigorsk, Russia — Yesterday and Last 2 Weeks

Now
59 °F

Scattered clouds.


Feels Like: 57 °F
Forecast: 38 / 65 °F
Wind: 13 mph from West

Location: Mineral'Nye Vody

Current Time: Sep 25, 2016 at 1:42:20 PM

Latest Report: Sep 25, 2016 at 1:00 PM


Visibility: N/A

Pressure: 30.04 "Hg (28.20 "Hg at 533m altitude)

Humidity: 51%

Dew Point: 41 °F

Location of PyatigorskLocation

Past Weather in Pyatigorsk — Graph

°F

Pyatigorsk Temperature Yesterday

Maximum temperature yesterday: 54 °F (at 12:00 AM)
Minimum temperature yesterday: 45 °F (at 11:00 PM)
Average temperature yesterday: 51 °F

High & Low Weather Summary for the Past Weeks

 TemperatureHumidityPressure
High84 °F (Sep 13, 3:00 PM)100% (Sep 22, 8:00 PM)30.12 "Hg (Sep 22, 8:00 PM)
Low39 °F (Sep 25, 6:00 AM)22% (Sep 17, 3:30 PM)29.62 "Hg (Sep 20, 10:30 PM)
Average62 °F63%29.94 "Hg
* Reported Sep 10 12:00 PM — Sep 25 12:00 PM, Pyatigorsk, Weather by CustomWeather, © 2016

Note: Actual official high and low records may vary slightly from our data, if they occured in-between our weather recording intervals... More about our weather records

Advertising

Pyatigorsk Weather History for the Previous 24 Hours

Scroll right to see more
 ConditionsComfort  
Time TempWeatherWind HumidityBarometerVisibility
12:00 PM
Sun, Sep 25
57 °FClear.17 mph55%30.04 "HgN/A
11:30 AM59 °FScattered clouds.8 mph51%30.04 "HgN/A
11:00 AM59 °FScattered clouds.15 mph48%30.07 "HgN/A
10:30 AM59 °FScattered clouds.15 mph55%30.07 "HgN/A
10:00 AM59 °FScattered clouds.13 mph59%30.07 "HgN/A
9:30 AM55 °FScattered clouds.10 mph67%30.07 "HgN/A
9:00 AM52 °FClear.1 mph82%30.09 "HgN/A
8:30 AM48 °FScattered clouds.3 mph87%30.09 "HgN/A
8:00 AM46 °FScattered clouds.No wind93%30.09 "HgN/A
7:30 AM45 °FPartly sunny.6 mph93%30.09 "HgN/A
7:00 AM43 °FClear.6 mph93%30.09 "HgN/A
6:30 AM41 °FClear.1 mph93%30.09 "HgN/A
6:00 AM39 °FClear.1 mph100%30.09 "HgN/A
5:30 AM43 °FClear.6 mph87%30.07 "HgN/A
5:00 AM41 °FClear.8 mph93%30.07 "HgN/A
4:30 AM43 °FClear.8 mph93%30.09 "HgN/A
4:00 AM41 °FClear.8 mph93%30.07 "HgN/A
3:30 AM43 °FClear.8 mph93%30.07 "HgN/A
3:00 AM43 °FClear.8 mph93%30.09 "HgN/A
2:30 AM43 °FClear.8 mph93%30.09 "HgN/A
2:00 AM43 °FClear.6 mph93%30.09 "HgN/A
1:30 AM43 °FClear.8 mph93%30.09 "HgN/A
1:00 AM45 °FPassing clouds.8 mph93%30.09 "HgN/A
12:30 AM45 °FPassing clouds.6 mph93%30.09 "HgN/A
12:00 AM45 °FClear.8 mph93%30.09 "HgN/A
11:00 PM
Sat, Sep 24
45 °FClear.6 mph93%30.12 "HgN/A
10:30 PM46 °FClear.6 mph93%30.12 "HgN/A
10:00 PM48 °FClear.10 mph87%30.12 "HgN/A
9:30 PM48 °FClear.10 mph87%30.12 "HgN/A
9:00 PM48 °FPassing clouds.8 mph87%30.12 "HgN/A
8:30 PM50 °FPassing clouds.10 mph82%30.12 "HgN/A
8:00 PM48 °FPassing clouds.8 mph87%30.12 "HgN/A
7:30 PM50 °FPassing clouds.8 mph82%30.12 "HgN/A
7:00 PM50 °FPassing clouds.6 mph82%30.12 "HgN/A
6:30 PM50 °FPassing clouds.8 mph82%30.12 "HgN/A
6:00 PM52 °FPassing clouds.8 mph77%30.12 "HgN/A
5:30 PM52 °FPartly sunny.8 mph82%30.12 "HgN/A
5:00 PM54 °FPartly sunny.13 mph72%30.12 "HgN/A
4:30 PM54 °FPartly sunny.15 mph77%30.12 "HgN/A
4:00 PM52 °FPartly sunny.17 mph82%30.09 "HgN/A
3:30 PM54 °FPartly sunny.17 mph72%30.12 "HgN/A
3:00 PM54 °FPartly sunny.20 mph77%30.09 "HgN/A
2:30 PM54 °FPartly sunny.17 mph77%30.09 "HgN/A
2:00 PM54 °FPartly sunny.20 mph72%30.09 "HgN/A
1:30 PM52 °FPartly sunny.17 mph82%30.09 "HgN/A
1:00 PM54 °FPartly sunny.15 mph77%30.09 "HgN/A
Weather by CustomWeather, © 2016

See weather overviewHow to use our weather pages